Weather Roundup
Issued by NWS Springfield, MO

Home | Current Version | Previous Version | Text Only | Print | Product List | Glossary On
Versions: 1 2 3 4 5 6 7 8 9 10 11 12 13 14 15 16 17 18 19 20 21 22 23 24 25 26 27 28 29 30 31 32 33 34 35 36 37 38 39 40 41 42 43 44 45 46 47 48 49 50
000
NZUS99 KSGF 232107
HRRSGF

HOURLY WEATHER
NATIONAL WEATHER SERVICE SPRINGFIELD MO
300 PM CST FRI FEB 23 2018

......SGF CWA......

CITY           SKY/WX    TMP DP  RH WIND       PRES   REMARKS
SPRINGFIELD    CLOUDY    46  42  86 S5        30.21F
JOPLIN         CLOUDY    42  41  96 E10       30.19F
WEST PLAINS    LGT RAIN  48  45  89 SE10      30.21F
ROLLA          CLOUDY    44  42  93 VRB3      30.24F
OSAGE BEACH    CLOUDY    42  39  89 NW3       30.26R
BRANSON        LGT RAIN  45  45 100 NW3       30.26S FOG

......SURROUNDING SGF CWA......

CITY           SKY/WX    TMP DP  RH WIND       PRES   REMARKS
CHANUTE        CLOUDY    39  35  86 N8        30.23F WCI  33
PARSONS        CLOUDY    41  37  86 N7        30.21F
COFFEYVILLE    CLOUDY    41  38  89 NE10      30.19F
EMPORIA        CLOUDY    32  29  88 NE7       30.23F WCI  26
GROVE OK       RAIN      45  43  93 E6        30.16F
ROGERS AR      RAIN      45  45 100 E7        30.19F FOG
SILOAM SPRINGS LGT RAIN  47  46  97 E7        30.14F
HARRISON AR    LGT RAIN  47  47 100 CALM      30.24S
NEAR YELLVILLE RAIN      48  47  96 NW3       30.25F

......KANSAS AND MISSOURI......

CITY           SKY/WX    TMP DP  RH WIND       PRES   REMARKS
KANSAS CTY INT CLOUDY    34  29  82 NE7       30.25F WCI  28
DOWNTOWN KC    CLOUDY    36  28  73 N3        30.26F
COLUMBIA       CLOUDY    38  35  89 NW3       30.26F
SEDALIA        CLOUDY    39  36  89 N5        30.27F
ST JOSEPH      CLOUDY    36  30  79 N7        30.28F WCI  30
ST LOUIS       CLOUDY    48  42  80 NW7       30.25F
SPIRIT OF STL  CLOUDY    48  42  80 SW5       30.24F
KIRKSVILLE     CLOUDY    38  33  82 NW6       30.26F WCI  33
WICHITA        CLOUDY    34  32  92 NE6       30.21F WCI  29
TOPEKA         CLOUDY    36  30  79 NE3       30.26F
OLATHE         CLOUDY    34  31  88 N7        30.24F WCI  28

......TENNESSEE......

CITY           SKY/WX    TMP DP  RH WIND       PRES   REMARKS
MEMPHIS        PTSUNNY   67  60  78 NW6       30.20F
NASHVILLE      PTSUNNY   81  56  42 S13       30.20F

......ARKANSAS.......

CITY           SKY/WX    TMP DP  RH WIND       PRES   REMARKS
FAYETTEVILLE   RAIN      48  48 100 E9        30.17F FOG
FT SMITH       LGT RAIN  49  49 100 E10       30.16F
LITTLE ROCK    CLOUDY    55  55 100 NE7       30.20F

......OKLAHOMA.......

CITY           SKY/WX    TMP DP  RH WIND       PRES   REMARKS
TULSA          RAIN      42  41  96 NW6       30.19R FOG
PONCA CITY     LGT RAIN  38  35  89 NE7       30.18F WCI  33
MCALESTER      CLOUDY    44  43  96 VRB6      30.12F
OKLAHOMA CITY  LGT RAIN  36  35  96 N14       30.12F WCI  27

......IOWA............

CITY           SKY/WX    TMP DP  RH WIND       PRES   REMARKS
DES MOINES     CLOUDY    35  26  69 NW9       30.28R WCI  28
QUAD CITIES    FAIR      40  31  70 W12       30.24R WCI  33

......ILLINOIS........

CITY           SKY/WX    TMP DP  RH WIND       PRES   REMARKS
QUINCY         CLOUDY    38  34  85 W8        30.26F WCI  32
CHICAGO        CLOUDY    39  35  86 SW13      30.20R WCI  31




USA.gov is the U.S. government's official web portal to all federal, state and local government web resources and services.